Regional Weather Roundup
Issued by NWS

Home | Current Version | Previous Version | Graphics & Text | Print | Product List | Glossary On
Versions: 1 2 3 4 5 6 7 8 9 10 11 12 13 14 15 16 17 18 19 20 21 22 23 24 25 26 27 28 29 30 31 32 33 34 35 36 37 38 39 40 41 42 43 44 45 46 47 48 49 50
000
ASUS43 KFSD 280410
RWRSD

WEATHER ROUNDUP FOR SOUTH DAKOTA
NATIONAL WEATHER SERVICE SIOUX FALLS SD
1100 PM CDT MON JUL 27 2015

NOTE: "FAIR" INDICATES FEW OR NO CLOUDS BELOW 12,000 FEET WITH NO
SIGNIFICANT WEATHER AND/OR OBSTRUCTIONS TO VISIBILITY.


SDZ001>005-009-010-012>017-280500-
NORTHWEST AND NORTH CENTRAL SOUTH DAKOTA

CITY           SKY/WX    TMP DP  RH WIND       PRES   REMARKS
BUFFALO          N/A     61  53  75 NW31G40   29.71R
FAITH            N/A     69  58  67 SE24G35   29.63F
MOBRIDGE       TSTM      71  66  84 W13G33    29.77R
$$

SDZ012>016-024>037-041>051-057-063-072>074-280500-
SOUTHWEST AND SOUTH CENTRAL SOUTH DAKOTA

CITY           SKY/WX    TMP DP  RH WIND       PRES   REMARKS
RAPID CTY ARPT MOCLDY    65  62  90 W3        29.71R
PIERRE         TSTM      69  64  84 NW39G45   29.72R
CUSTER         PTCLDY    56  54  93 W5        29.87S
ELLSWORTH AFB  MOCLDY    65  64  95 SW8       29.70R
PHILIP         CLOUDY    69  66  90 SE8       29.69F
PINE RIDGE     CLOUDY    67  61  81 W5        29.75R
SPEARFISH      FAIR      63  55  77 NW16G22   29.86R
WINNER         FAIR      83  71  67 SE16      29.67F
$$

SDZ004>011-016>023-039-040-280500-
NORTHEAST SOUTH DAKOTA

CITY           SKY/WX    TMP DP  RH WIND       PRES   REMARKS
ABERDEEN       MOCLDY    78  70  76 SE10      29.71F
WATERTOWN      CLOUDY    77  71  82 SE10      29.80F
BROOKINGS      PTCLDY    75  72  88 SE14      29.84F
SISSETON         N/A     76  72  87 S14G21    29.76F
$$

SDZ017-020-022-023-036>040-048>070-280500-
SOUTHEAST SOUTH DAKOTA

CITY           SKY/WX    TMP DP  RH WIND       PRES   REMARKS
SIOUX FALLS    MOCLDY    77  71  82 S12       29.82R
HURON          PTCLDY    79  74  84 SE15      29.71F
CHAMBERLAIN    PTCLDY    78  72  80 SE17      29.68F
MITCHELL       PTCLDY    81  73  76 SE18G24   29.74F
YANKTON        PTCLDY    79  72  78 SE17      29.78R
$$

ABBREVIATIONS USED IN REMARKS
   TC - TEMPERATURE IN CELSIUS
  WCI - WIND CHILL INDEX
   HX - HEAT INDEX
  VSB - VISIBILITY



USA.gov is the U.S. government's official web portal to all federal, state and local government web resources and services.